QPF
0.00 0.00 0.00 0.00 0.00 0.00 0.00 0.00 0.00 0.00 0.01 0.01 0.00 0.00 0.00 0.00 0.01 0.02 0.02 0.02 0.04 0.04 0.04 0.05 0.05 0.05 0.04 0.05 0.07 0.07 0.05 0.07 0.07 0.09 0.07 0.11 0.14 0.09 0.08 0.07 0.08 0.07 0.06
0.00 0.00 0.00 0.00 0.00 0.00 0.00 0.00 0.00 0.01 0.00 0.00 0.00 0.00 0.00 0.00 0.01 0.02 0.02 0.01 0.02 0.03 0.04 0.04 0.04 0.05 0.04 0.05 0.06 0.06 0.05 0.05 0.07 0.07 0.08 0.11 0.12 0.10 0.11 0.09 0.07 0.08 0.08
0.00 0.00 0.00 0.00 0.00 0.00 0.00 0.00 0.00 0.00 0.00 0.00 0.00 0.00 0.00 0.00 0.01 0.01 0.02 0.01 0.01 0.02 0.02 0.03 0.03 0.03 0.03 0.05 0.05 0.05 0.04 0.04 0.06 0.08 0.08 0.09 0.09 0.09 0.10 0.09 0.08 0.10 0.10
0.00 0.00 0.00 0.00 0.00 0.00 0.00 0.00 0.00 0.00 0.00 0.00 0.00 0.00 0.00 0.00 0.00 0.00 0.01 0.01 0.01 0.01 0.02 0.02 0.02 0.02 0.02 0.03 0.04 0.05 0.05 0.05 0.06 0.08 0.09 0.09 0.10 0.09 0.09 0.08 0.08 0.09 0.12
0.00 0.00 0.00 0.00 0.00 0.00 0.00 0.00 0.00 0.00 0.00 0.00 0.00 0.01 0.00 0.00 0.00 0.00 0.01 0.01 0.01 0.01 0.02 0.01 0.01 0.02 0.03 0.04 0.05 0.07 0.06 0.07 0.08 0.09 0.09 0.09 0.10 0.09 0.08 0.07 0.07 0.08 0.10
0.00 0.00 0.00 0.00 0.00 0.00 0.00 0.00 0.00 0.00 0.00 0.00 0.00 0.01 0.00 0.00 0.00 0.00 0.00 0.01 0.00 0.00 0.01 0.00 0.01 0.01 0.01 0.02 0.04 0.06 0.05 0.05 0.06 0.08 0.07 0.08 0.10 0.11 0.10 0.10 0.09 0.08 0.09
0.00 0.00 0.00 0.00 0.00 0.00 0.00 0.00 0.00 0.00 0.01 0.00 0.00 0.00 0.01 0.00 0.00 0.00 0.00 0.00 0.00 0.01 0.01 0.01 0.01 0.01 0.01 0.02 0.03 0.03 0.03 0.04 0.05 0.05 0.06 0.07 0.08 0.09 0.09 0.09 0.09 0.09 0.10
0.00 0.00 0.00 0.00 0.00 0.00 0.00 0.00 0.00 0.00 0.01 0.00 0.00 0.00 0.01 0.00 0.00 0.00 0.00 0.00 0.00 0.01 0.01 0.00 0.01 0.01 0.01 0.01 0.03 0.05 0.05 0.03 0.03 0.03 0.03 0.05 0.07 0.10 0.12 0.12 0.11 0.09 0.10
0.00 0.00 0.00 0.00 0.00 0.00 0.00 0.00 0.00 0.01 0.01 0.01 0.00 0.01 0.01 0.00 0.00 0.00 0.00 0.00 0.01 0.01 0.00 0.00 0.00 0.00 0.00 0.00 0.01 0.05 0.06 0.03 0.02 0.01 0.02 0.03 0.05 0.10 0.13 0.13 0.12 0.10 0.09
0.00 0.00 0.00 0.00 0.00 0.00 0.00 0.00 0.00 0.00 0.00 0.00 0.01 0.01 0.00 0.00 0.00 0.00 0.00 0.00 0.01 0.01 0.01 0.00 0.00 0.00 0.00 0.00 0.01 0.03 0.04 0.03 0.01 0.01 0.01 0.02 0.03 0.05 0.07 0.09 0.11 0.10 0.09
0.00 0.00 0.00 0.00 0.00 0.00 0.00 0.00 0.00 0.00 0.00 0.00 0.00 0.01 0.00 0.00 0.00 0.00 0.00 0.00 0.01 0.01 0.01 0.00 0.00 0.00 0.00 0.00 0.00 0.01 0.01 0.01 0.02 0.02 0.02 0.02 0.03 0.03 0.04 0.05 0.06 0.10 0.10
0.00 0.00 0.00 0.00 0.00 0.00 0.00 0.00 0.00 0.00 0.01 0.01 0.00 0.01 0.01 0.01 0.01 0.01 0.00 0.00 0.00 0.01 0.01 0.00 0.00 0.00 0.00 0.00 0.00 0.00 0.00 0.01 0.01 0.01 0.02 0.02 0.02 0.02 0.02 0.03 0.03 0.05 0.09
0.00 0.00 0.00 0.00 0.00 0.00 0.00 0.00 0.00 0.00 0.01 0.01 0.01 0.01 0.01 0.01 0.01 0.01 0.00 0.00 0.00 0.01 0.00 0.00 0.00 0.00 0.00 0.00 0.00 0.00 0.00 0.01 0.02 0.01 0.01 0.01 0.02 0.02 0.02 0.02 0.02 0.04 0.05
0.00 0.00 0.00 0.00 0.00 0.00 0.00 0.00 0.00 0.00 0.01 0.01 0.01 0.01 0.01 0.02 0.02 0.03 0.02 0.00 0.00 0.00 0.00 0.00 0.00 0.00 0.00 0.00 0.00 0.00 0.00 0.00 0.01 0.01 0.01 0.01 0.02 0.01 0.01 0.02 0.03 0.04 0.05
0.00 0.00 0.00 0.00 0.00 0.00 0.00 0.00 0.00 0.01 0.01 0.01 0.01 0.01 0.02 0.03 0.03 0.04 0.03 0.01 0.00 0.00 0.00 0.00 0.00 0.00 0.00 0.00 0.00 0.00 0.00 0.00 0.01 0.01 0.01 0.02 0.02 0.01 0.01 0.02 0.03 0.03 0.04
0.00 0.00 0.00 0.00 0.00 0.00 0.00 0.00 0.00 0.01 0.01 0.01 0.01 0.02 0.02 0.03 0.03 0.03 0.03 0.02 0.01 0.00 0.00 0.00 0.01 0.01 0.01 0.00 0.00 0.00 0.01 0.01 0.01 0.01 0.02 0.02 0.02 0.02 0.02 0.01 0.01 0.02 0.03
0.00 0.00 0.00 0.00 0.00 0.01 0.01 0.01 0.01 0.01 0.01 0.01 0.01 0.01 0.02 0.02 0.02 0.02 0.02 0.02 0.01 0.01 0.00 0.00 0.00 0.01 0.01 0.01 0.01 0.01 0.01 0.01 0.01 0.01 0.01 0.01 0.01 0.02 0.01 0.01 0.01 0.01 0.01
0.00 0.00 0.00 0.00 0.00 0.01 0.01 0.01 0.01 0.02 0.02 0.02 0.01 0.02 0.02 0.02 0.02 0.02 0.02 0.02 0.01 0.01 0.00 0.00 0.01 0.01 0.01 0.01 0.02 0.02 0.02 0.01 0.01 0.01 0.01 0.01 0.02 0.02 0.02 0.01 0.01 0.01 0.01
0.00 0.00 0.00 0.00 0.00 0.01 0.01 0.01 0.01 0.02 0.03 0.03 0.02 0.02 0.02 0.02 0.02 0.02 0.02 0.02 0.02 0.01 0.01 0.01 0.01 0.01 0.01 0.01 0.02 0.02 0.02 0.02 0.02 0.02 0.02 0.01 0.01 0.01 0.01 0.01 0.02 0.02 0.02
0.00 0.00 0.00 0.00 0.01 0.01 0.01 0.01 0.02 0.02 0.03 0.04 0.04 0.03 0.03 0.03 0.03 0.02 0.02 0.02 0.02 0.02 0.02 0.02 0.01 0.01 0.02 0.02 0.03 0.03 0.04 0.03 0.03 0.04 0.03 0.02 0.02 0.02 0.01 0.01 0.02 0.02 0.02
0.00 0.00 0.00 0.01 0.01 0.01 0.02 0.02 0.03 0.03 0.04 0.05 0.04 0.03 0.03 0.02 0.02 0.02 0.02 0.02 0.02 0.02 0.02 0.02 0.02 0.02 0.02 0.03 0.03 0.03 0.04 0.04 0.04 0.04 0.05 0.04 0.03 0.03 0.03 0.02 0.02 0.02 0.03
0.00 0.00 0.00 0.01 0.01 0.01 0.02 0.03 0.03 0.04 0.06 0.06 0.05 0.03 0.03 0.02 0.02 0.02 0.02 0.02 0.02 0.02 0.02 0.03 0.03 0.03 0.03 0.03 0.03 0.03 0.04 0.04 0.04 0.04 0.04 0.04 0.04 0.03 0.03 0.03 0.02 0.01 0.02
0.00 0.00 0.01 0.01 0.01 0.01 0.02 0.03 0.04 0.05 0.06 0.07 0.06 0.05 0.03 0.02 0.01 0.02 0.02 0.02 0.03 0.02 0.02 0.03 0.03 0.03 0.03 0.03 0.03 0.03 0.04 0.03 0.04 0.04 0.04 0.05 0.05 0.04 0.03 0.03 0.02 0.02 0.02
0.01 0.01 0.01 0.01 0.01 0.02 0.02 0.03 0.05 0.05 0.07 0.08 0.07 0.06 0.04 0.02 0.01 0.01 0.01 0.02 0.03 0.03 0.03 0.03 0.03 0.03 0.03 0.03 0.04 0.05 0.04 0.04 0.04 0.03 0.04 0.04 0.05 0.05 0.04 0.03 0.03 0.02 0.01
0.01 0.01 0.01 0.02 0.02 0.02 0.03 0.03 0.04 0.06 0.06 0.07 0.08 0.07 0.06 0.04 0.02 0.01 0.01 0.01 0.02 0.02 0.03 0.04 0.04 0.04 0.03 0.03 0.03 0.04 0.06 0.05 0.05 0.04 0.04 0.04 0.04 0.05 0.05 0.04 0.03 0.02 0.01
0.01 0.01 0.01 0.02 0.03 0.03 0.03 0.03 0.04 0.06 0.06 0.06 0.07 0.07 0.06 0.04 0.02 0.01 0.01 0.01 0.01 0.02 0.02 0.03 0.04 0.04 0.04 0.03 0.02 0.02 0.03 0.05 0.06 0.05 0.05 0.04 0.03 0.03 0.03 0.03 0.02 0.02 0.01
MSLP
1012.86 1012.90 1012.97 1013.06 1013.13 1013.17 1013.19 1013.19 1013.18 1013.18 1013.21 1013.25 1013.32 1013.40 1013.47 1013.52 1013.53 1013.51 1013.46 1013.40 1013.32 1013.26 1013.22 1013.20 1013.21 1013.22 1013.24 1013.24 1013.21 1013.15 1013.04 1012.90 1012.72 1012.51 1012.28 1012.05 1011.83 1011.64 1011.50 1011.42 1011.43 1011.53 1011.72
1012.99 1012.99 1013.02 1013.06 1013.09 1013.09 1013.07 1013.03 1012.99 1012.95 1012.94 1012.96 1013.00 1013.05 1013.11 1013.16 1013.19 1013.18 1013.15 1013.10 1013.05 1012.99 1012.95 1012.93 1012.92 1012.93 1012.95 1012.96 1012.96 1012.93 1012.88 1012.79 1012.66 1012.49 1012.30 1012.08 1011.86 1011.66 1011.49 1011.38 1011.34 1011.39 1011.53
1013.38 1013.34 1013.33 1013.33 1013.30 1013.25 1013.16 1013.06 1012.94 1012.84 1012.75 1012.70 1012.68 1012.69 1012.72 1012.75 1012.77 1012.78 1012.77 1012.74 1012.70 1012.66 1012.63 1012.61 1012.61 1012.62 1012.65 1012.68 1012.70 1012.72 1012.71 1012.67 1012.59 1012.47 1012.31 1012.12 1011.91 1011.70 1011.52 1011.38 1011.31 1011.33 1011.43
1013.97 1013.91 1013.87 1013.82 1013.74 1013.61 1013.45 1013.25 1013.05 1012.84 1012.66 1012.51 1012.40 1012.34 1012.31 1012.30 1012.30 1012.30 1012.29 1012.28 1012.26 1012.24 1012.22 1012.21 1012.22 1012.25 1012.29 1012.35 1012.41 1012.46 1012.50 1012.50 1012.47 1012.39 1012.27 1012.11 1011.92 1011.73 1011.55 1011.41 1011.34 1011.33 1011.40
1014.67 1014.61 1014.54 1014.45 1014.31 1014.11 1013.86 1013.57 1013.25 1012.94 1012.64 1012.38 1012.16 1012.01 1011.89 1011.82 1011.78 1011.75 1011.73 1011.71 1011.70 1011.69 1011.68 1011.69 1011.71 1011.76 1011.83 1011.91 1012.01 1012.10 1012.17 1012.22 1012.23 1012.20 1012.12 1012.00 1011.85 1011.69 1011.54 1011.42 1011.36 1011.35 1011.42
1015.37 1015.30 1015.21 1015.08 1014.89 1014.63 1014.30 1013.91 1013.50 1013.07 1012.66 1012.28 1011.96 1011.69 1011.49 1011.34 1011.23 1011.15 1011.09 1011.05 1011.02 1011.00 1011.00 1011.02 1011.06 1011.12 1011.21 1011.33 1011.45 1011.58 1011.70 1011.79 1011.84 1011.85 1011.82 1011.74 1011.64 1011.53 1011.43 1011.35 1011.32 1011.34 1011.42
1015.96 1015.88 1015.78 1015.61 1015.38 1015.06 1014.66 1014.20 1013.70 1013.18 1012.67 1012.20 1011.78 1011.41 1011.11 1010.87 1010.68 1010.53 1010.41 1010.32 1010.25 1010.21 1010.19 1010.20 1010.24 1010.32 1010.43 1010.57 1010.73 1010.89 1011.04 1011.17 1011.27 1011.32 1011.34 1011.33 1011.28 1011.24 1011.20 1011.18 1011.20 1011.26 1011.37
1016.38 1016.29 1016.15 1015.96 1015.68 1015.32 1014.87 1014.36 1013.80 1013.23 1012.66 1012.11 1011.62 1011.18 1010.79 1010.46 1010.19 1009.95 1009.75 1009.59 1009.46 1009.36 1009.31 1009.29 1009.32 1009.39 1009.51 1009.67 1009.85 1010.04 1010.22 1010.39 1010.53 1010.64 1010.72 1010.77 1010.79 1010.82 1010.85 1010.90 1010.98 1011.09 1011.23
1016.63 1016.51 1016.34 1016.10 1015.78 1015.38 1014.91 1014.37 1013.79 1013.20 1012.60 1012.03 1011.49 1011.00 1010.56 1010.16 1009.80 1009.47 1009.19 1008.93 1008.72 1008.55 1008.43 1008.36 1008.36 1008.41 1008.52 1008.68 1008.87 1009.08 1009.30 1009.51 1009.70 1009.87 1010.00 1010.12 1010.22 1010.32 1010.42 1010.54 1010.68 1010.84 1011.02
1016.77 1016.60 1016.38 1016.09 1015.73 1015.30 1014.81 1014.26 1013.69 1013.10 1012.52 1011.96 1011.42 1010.91 1010.43 1009.98 1009.55 1009.15 1008.77 1008.42 1008.11 1007.85 1007.64 1007.50 1007.44 1007.45 1007.53 1007.67 1007.86 1008.09 1008.34 1008.58 1008.82 1009.05 1009.25 1009.44 1009.61 1009.79 1009.96 1010.15 1010.34 1010.55 1010.77
1016.88 1016.64 1016.35 1016.01 1015.60 1015.14 1014.63 1014.10 1013.55 1012.99 1012.45 1011.92 1011.41 1010.91 1010.42 1009.95 1009.47 1009.00 1008.54 1008.10 1007.68 1007.31 1007.01 1006.78 1006.63 1006.57 1006.60 1006.71 1006.89 1007.11 1007.38 1007.66 1007.95 1008.23 1008.50 1008.76 1009.01 1009.26 1009.50 1009.74 1009.99 1010.24 1010.48
1017.02 1016.71 1016.35 1015.94 1015.48 1014.98 1014.46 1013.93 1013.41 1012.89 1012.40 1011.92 1011.45 1010.98 1010.51 1010.03 1009.53 1009.01 1008.48 1007.95 1007.43 1006.96 1006.55 1006.21 1005.96 1005.81 1005.77 1005.82 1005.96 1006.17 1006.44 1006.75 1007.08 1007.42 1007.76 1008.09 1008.42 1008.73 1009.04 1009.34 1009.63 1009.91 1010.18
1017.23 1016.85 1016.41 1015.94 1015.42 1014.89 1014.35 1013.82 1013.31 1012.83 1012.38 1011.95 1011.53 1011.10 1010.65 1010.18 1009.67 1009.12 1008.53 1007.93 1007.33 1006.76 1006.23 1005.78 1005.42 1005.16 1005.02 1005.00 1005.08 1005.25 1005.50 1005.82 1006.18 1006.57 1006.97 1007.38 1007.78 1008.17 1008.55 1008.90 1009.24 1009.56 1009.85
1017.49 1017.05 1016.56 1016.02 1015.46 1014.88 1014.32 1013.78 1013.27 1012.81 1012.38 1011.98 1011.59 1011.20 1010.78 1010.32 1009.80 1009.24 1008.62 1007.97 1007.29 1006.63 1006.00 1005.44 1004.96 1004.58 1004.33 1004.20 1004.19 1004.31 1004.52 1004.82 1005.20 1005.62 1006.08 1006.56 1007.04 1007.51 1007.96 1008.38 1008.78 1009.14 1009.47
1017.75 1017.27 1016.74 1016.16 1015.56 1014.95 1014.35 1013.79 1013.27 1012.80 1012.37 1011.98 1011.60 1011.22 1010.82 1010.37 1009.86 1009.29 1008.65 1007.97 1007.24 1006.51 1005.80 1005.12 1004.52 1004.02 1003.64 1003.39 1003.28 1003.30 1003.45 1003.71 1004.08 1004.52 1005.03 1005.57 1006.12 1006.68 1007.21 1007.72 1008.18 1008.61 1009.00
1017.93 1017.45 1016.90 1016.30 1015.67 1015.04 1014.41 1013.82 1013.27 1012.77 1012.32 1011.90 1011.51 1011.12 1010.72 1010.27 1009.77 1009.20 1008.56 1007.87 1007.11 1006.33 1005.55 1004.78 1004.07 1003.45 1002.93 1002.54 1002.30 1002.20 1002.26 1002.46 1002.79 1003.23 1003.76 1004.35 1004.98 1005.62 1006.25 1006.85 1007.42 1007.93 1008.40
1017.96 1017.49 1016.96 1016.37 1015.74 1015.09 1014.45 1013.83 1013.24 1012.70 1012.20 1011.74 1011.31 1010.90 1010.47 1010.02 1009.52 1008.96 1008.33 1007.64 1006.88 1006.07 1005.24 1004.40 1003.60 1002.85 1002.20 1001.67 1001.28 1001.05 1000.99 1001.09 1001.36 1001.77 1002.30 1002.93 1003.62 1004.35 1005.08 1005.79 1006.47 1007.09 1007.67
1017.81 1017.38 1016.88 1016.32 1015.71 1015.07 1014.42 1013.78 1013.15 1012.56 1012.01 1011.49 1011.01 1010.55 1010.10 1009.63 1009.13 1008.58 1007.98 1007.30 1006.55 1005.74 1004.89 1004.00 1003.12 1002.27 1001.49 1000.82 1000.28 999.90 999.70 999.68 999.85 1000.21 1000.72 1001.36 1002.10 1002.90 1003.73 1004.55 1005.35 1006.11 1006.81
1017.48 1017.09 1016.64 1016.13 1015.56 1014.95 1014.30 1013.65 1013.00 1012.36 1011.75 1011.18 1010.64 1010.14 1009.65 1009.16 1008.66 1008.13 1007.55 1006.90 1006.18 1005.39 1004.54 1003.63 1002.69 1001.76 1000.87 1000.06 999.37 998.83 998.48 998.33 998.38 998.65 999.10 999.73 1000.49 1001.35 1002.26 1003.19 1004.12 1005.01 1005.85
1017.00 1016.66 1016.26 1015.80 1015.28 1014.71 1014.09 1013.44 1012.77 1012.11 1011.46 1010.83 1010.24 1009.69 1009.17 1008.67 1008.17 1007.66 1007.11 1006.51 1005.83 1005.07 1004.24 1003.33 1002.36 1001.37 1000.39 999.46 998.63 997.94 997.43 997.13 997.05 997.20 997.58 998.16 998.91 999.79 1000.76 1001.79 1002.82 1003.84 1004.82
1016.42 1016.12 1015.77 1015.37 1014.90 1014.37 1013.78 1013.15 1012.48 1011.80 1011.13 1010.46 1009.84 1009.25 1008.71 1008.19 1007.70 1007.22 1006.71 1006.15 1005.53 1004.82 1004.02 1003.13 1002.15 1001.13 1000.08 999.06 998.11 997.28 996.62 996.17 995.94 995.96 996.23 996.74 997.44 998.31 999.31 1000.40 1001.52 1002.64 1003.74
1015.79 1015.51 1015.20 1014.84 1014.42 1013.94 1013.39 1012.78 1012.13 1011.45 1010.76 1010.08 1009.44 1008.83 1008.28 1007.77 1007.29 1006.83 1006.36 1005.86 1005.30 1004.64 1003.89 1003.03 1002.07 1001.04 999.95 998.86 997.82 996.87 996.08 995.48 995.11 994.99 995.13 995.53 996.16 996.99 997.97 999.08 1000.25 1001.44 1002.64
1015.14 1014.87 1014.58 1014.25 1013.87 1013.42 1012.90 1012.32 1011.69 1011.02 1010.34 1009.67 1009.02 1008.42 1007.87 1007.37 1006.92 1006.49 1006.07 1005.62 1005.11 1004.52 1003.83 1003.02 1002.09 1001.07 999.97 998.84 997.74 996.71 995.80 995.07 994.57 994.30 994.31 994.59 995.11 995.86 996.80 997.87 999.05 1000.28 1001.53
1014.48 1014.21 1013.93 1013.61 1013.24 1012.81 1012.32 1011.77 1011.16 1010.52 1009.86 1009.20 1008.57 1007.98 1007.45 1006.98 1006.56 1006.17 1005.79 1005.40 1004.95 1004.42 1003.79 1003.04 1002.16 1001.17 1000.09 998.95 997.82 996.73 995.74 994.92 994.29 993.90 993.77 993.92 994.32 994.96 995.81 996.83 997.97 999.19 1000.45
1013.81 1013.53 1013.24 1012.92 1012.55 1012.13 1011.66 1011.12 1010.54 1009.92 1009.29 1008.66 1008.06 1007.50 1007.00 1006.57 1006.18 1005.84 1005.51 1005.17 1004.78 1004.31 1003.74 1003.05 1002.24 1001.30 1000.26 999.15 998.01 996.90 995.87 994.97 994.25 993.75 993.51 993.52 993.79 994.31 995.05 995.97 997.04 998.21 999.45
1013.11 1012.82 1012.51 1012.18 1011.81 1011.39 1010.91 1010.39 1009.83 1009.24 1008.64 1008.05 1007.49 1006.97 1006.52 1006.12 1005.78 1005.48 1005.20 1004.91 1004.58 1004.18 1003.67 1003.05 1002.31 1001.44 1000.46 999.39 998.29 997.20 996.15 995.22 994.44 993.86 993.51 993.41 993.55 993.94 994.55 995.36 996.33 997.43 998.60
Thickness
5728 5726 5723 5721 5719 5717 5714 5712 5710 5708 5706 5703 5701 5698 5696 5694 5692 5689 5686 5684 5682 5680 5679 5678 5676 5676 5676 5676 5677 5677 5677 5677 5674 5679 5686 5690 5693 5694 5696 5698 5700 5702 5704
5726 5724 5721 5719 5717 5713 5711 5709 5708 5706 5704 5702 5700 5697 5696 5694 5691 5688 5686 5684 5681 5679 5678 5676 5675 5676 5675 5675 5675 5675 5676 5677 5675 5674 5679 5684 5687 5690 5692 5693 5696 5698 5700
5724 5721 5718 5715 5713 5710 5708 5707 5705 5704 5703 5702 5699 5696 5694 5693 5690 5688 5686 5684 5682 5680 5678 5676 5674 5673 5672 5673 5673 5674 5675 5676 5676 5674 5675 5679 5681 5684 5686 5688 5690 5693 5695
5721 5717 5713 5712 5709 5707 5706 5704 5703 5702 5700 5699 5698 5696 5694 5692 5689 5687 5685 5683 5681 5680 5679 5676 5674 5673 5671 5672 5672 5672 5673 5672 5672 5671 5671 5673 5675 5679 5680 5680 5682 5686 5688
5717 5713 5710 5709 5707 5705 5703 5701 5700 5699 5698 5697 5696 5694 5692 5690 5688 5686 5684 5683 5680 5679 5678 5677 5675 5674 5673 5671 5670 5669 5669 5668 5668 5667 5667 5668 5669 5671 5673 5676 5676 5679 5681
5713 5710 5708 5706 5703 5701 5699 5698 5697 5695 5694 5694 5693 5691 5690 5689 5687 5686 5683 5681 5680 5678 5676 5675 5675 5673 5672 5670 5669 5668 5668 5666 5664 5664 5663 5663 5665 5668 5670 5671 5671 5672 5672
5709 5706 5704 5702 5699 5697 5696 5694 5692 5691 5690 5690 5689 5688 5687 5686 5685 5684 5682 5680 5678 5677 5675 5674 5673 5672 5670 5668 5667 5667 5666 5665 5665 5663 5661 5661 5662 5664 5666 5666 5667 5667 5668
5704 5701 5699 5697 5695 5693 5692 5690 5689 5688 5687 5686 5686 5685 5684 5684 5683 5682 5680 5678 5677 5676 5675 5673 5670 5669 5669 5666 5665 5663 5662 5662 5662 5661 5660 5659 5661 5662 5664 5664 5664 5664 5665
5698 5696 5694 5692 5690 5688 5686 5685 5685 5684 5683 5683 5683 5682 5681 5680 5680 5679 5678 5676 5675 5674 5673 5671 5669 5667 5667 5665 5663 5660 5659 5658 5659 5659 5658 5658 5658 5659 5660 5659 5658 5657 5656
5692 5691 5690 5687 5685 5683 5683 5682 5681 5679 5679 5679 5679 5679 5679 5677 5677 5676 5675 5673 5672 5671 5670 5668 5667 5665 5665 5663 5660 5657 5654 5654 5655 5655 5654 5654 5653 5654 5654 5654 5654 5652 5652
5688 5686 5684 5682 5680 5679 5678 5677 5675 5674 5673 5673 5673 5674 5674 5673 5672 5672 5671 5669 5668 5667 5665 5664 5663 5663 5662 5660 5658 5655 5653 5652 5652 5651 5650 5649 5649 5649 5649 5649 5650 5650 5649
5680 5678 5677 5676 5675 5675 5671 5670 5669 5667 5665 5665 5665 5665 5666 5666 5666 5665 5665 5664 5663 5661 5660 5659 5658 5658 5657 5656 5654 5653 5652 5650 5648 5646 5645 5643 5643 5643 5644 5645 5645 5645 5646
5671 5670 5669 5669 5668 5667 5664 5661 5660 5658 5657 5656 5656 5656 5656 5657 5657 5657 5657 5656 5656 5654 5654 5653 5652 5652 5651 5650 5649 5649 5647 5645 5643 5641 5640 5639 5640 5640 5640 5640 5639 5639 5639
5662 5661 5661 5660 5658 5657 5655 5654 5651 5649 5648 5647 5647 5646 5647 5647 5647 5646 5646 5646 5646 5645 5645 5645 5645 5645 5644 5644 5643 5643 5642 5641 5640 5638 5637 5637 5637 5635 5634 5634 5633 5632 5631
5653 5652 5651 5650 5648 5647 5646 5644 5643 5642 5641 5639 5639 5639 5638 5637 5639 5638 5636 5636 5636 5636 5636 5635 5635 5636 5636 5637 5637 5637 5637 5637 5636 5635 5634 5632 5631 5630 5629 5629 5627 5626 5624
5643 5642 5640 5639 5638 5637 5635 5634 5635 5634 5634 5634 5633 5632 5631 5631 5630 5629 5628 5628 5627 5628 5627 5626 5627 5629 5630 5630 5630 5630 5630 5631 5631 5630 5629 5627 5626 5624 5623 5623 5622 5620 5618
5633 5631 5630 5629 5628 5627 5626 5624 5623 5624 5625 5624 5624 5624 5622 5622 5621 5619 5619 5619 5618 5619 5618 5619 5620 5622 5623 5623 5623 5623 5623 5624 5624 5623 5623 5621 5621 5619 5618 5616 5615 5614 5612
5623 5622 5620 5618 5617 5616 5616 5616 5615 5614 5613 5614 5615 5614 5614 5613 5612 5610 5609 5607 5608 5609 5609 5610 5612 5614 5615 5615 5615 5615 5616 5616 5615 5615 5615 5615 5614 5613 5611 5609 5608 5607 5606
5613 5611 5610 5608 5607 5606 5607 5606 5606 5606 5605 5605 5605 5604 5603 5603 5602 5600 5599 5598 5599 5600 5600 5601 5602 5604 5605 5606 5606 5606 5607 5607 5607 5607 5607 5607 5606 5605 5604 5602 5601 5600 5598
5601 5601 5599 5597 5596 5596 5596 5596 5596 5597 5596 5596 5596 5595 5593 5591 5590 5589 5589 5590 5591 5591 5592 5592 5594 5595 5596 5596 5597 5597 5597 5597 5598 5598 5598 5598 5598 5598 5597 5595 5593 5592 5590
5589 5588 5588 5586 5586 5585 5585 5586 5586 5587 5587 5588 5589 5589 5587 5584 5584 5584 5583 5583 5583 5583 5583 5584 5585 5586 5587 5587 5587 5587 5588 5588 5588 5588 5588 5588 5589 5589 5589 5588 5586 5585 5583
5576 5576 5575 5575 5575 5575 5575 5576 5576 5577 5578 5578 5579 5580 5579 5577 5577 5577 5576 5576 5576 5576 5576 5576 5576 5577 5578 5578 5579 5578 5578 5578 5579 5578 5579 5579 5579 5580 5580 5579 5578 5576 5575
5564 5563 5562 5563 5563 5564 5564 5565 5565 5566 5567 5568 5569 5570 5569 5569 5569 5569 5569 5569 5568 5569 5569 5569 5569 5569 5570 5571 5571 5571 5570 5570 5570 5570 5569 5570 5569 5569 5570 5570 5569 5568 5566
5551 5550 5550 5550 5551 5552 5552 5553 5554 5555 5556 5558 5559 5560 5560 5560 5561 5561 5561 5560 5560 5560 5560 5561 5561 5562 5562 5562 5563 5563 5563 5562 5562 5562 5561 5561 5561 5560 5560 5560 5560 5559 5557
5539 5538 5538 5538 5539 5540 5541 5542 5543 5544 5546 5548 5549 5551 5551 5551 5551 5552 5552 5552 5552 5551 5552 5553 5553 5554 5554 5554 5554 5555 5554 5553 5553 5553 5552 5552 5552 5552 5551 5551 5551 5550 5548
5527 5527 5527 5527 5527 5529 5530 5531 5532 5533 5535 5537 5539 5541 5542 5542 5542 5543 5544 5544 5543 5543 5544 5544 5545 5546 5545 5545 5545 5545 5545 5544 5544 5544 5544 5544 5544 5543 5543 5542 5542 5541 5539